Aérodrome :
LOGIN :

S'inscrire | Disclaimer

   EN    FR    IT 

 










Légende :    VFR   VFR Marginal   IFR   IFR Intensif   IFR Très Intensif
Visi : 
Plafond : 
>= 8 km
>= 3000ft
5 à 8 km
1000 à 3000 ft
1500m à 5 km
500 à 1000 ft
800 à 1500m
200 à 500 ft
< 800m
< 200 ft
Symboles :   Orages  Brouillard  Fortes neiges  Fortes précipitations  Vent > 20 kt
SIGMETs :   Divers  Orages  Givrage  Turbulence  Onde Orograph.  Cendres Volcan.







- Altitude de l'aérodrome : 768 ft
- Code IATA : MXP


LIMC - Milano Malpensa

DERNIER METAR :
  • 211750Z 23005KT CAVOK 14/M04 Q1030 NOSIG

METARs EXPIRÉS :
  • 211720Z 24006KT CAVOK 14/M03 Q1030 NOSIG
  • 211650Z 24007KT CAVOK 15/M03 Q1029 NOSIG
  • 211620Z 23006KT 190V270 CAVOK 15/M04 Q1029 NOSIG
  • 211550Z 26005KT 210V290 CAVOK 16/M03 Q1030 NOSIG
  • 211520Z VRB03KT CAVOK 16/M04 Q1030 NOSIG
  • 211450Z 25006KT 200V320 CAVOK 16/M03 Q1030 NOSIG

TAF TAF LIMC
Valide du 21 à 18h jusqu'au 23 à 00h UTC


211700Z 2118/2224 VRB05KT CAVOK
Pas de NOTAMs connus pour ce terrain.



MET'MAP, la Météo Aéronautique d'un coup d'oeil ! - Copyright ORBIFLY Décembre 2007 - Disclaimer

ORBIFLY MET'MAP TEAM :

Programmation & Développement : Alexandra Zaïnal
Conception & Développement : Baudouin d'Aumeries
Co-Programmation & Développement : Marc-Olivier Méhu
Soutien technique & logistique : Manuel Goepfert

Contact : metmap@orbifly.com




SOURCES & CREDITS :

   NOAA